Ivalo, Finland

1:17 AM EEST on October 19, 2017 (GMT +0300)
Ivalo

Weather History for EFIV - January, 2013

Change the Weather History Date:

Tuesday, January 15, 2013

  Actual Average Record
Temperature  
Mean Temperature -10 °F -  
Max Temperature -5 °F - - ()
Min Temperature -16 °F - - ()
Degree Days  
Heating Degree Days 76    
Moisture  
Dew Point -12 °F    
Average Humidity 83    
Maximum Humidity 92    
Minimum Humidity 73    
Precipitation  
Precipitation 0.00 in - - ()
Sea Level Pressure  
Sea Level Pressure 30.10 in    
Wind  
Wind Speed 4 mph ()    
Max Wind Speed 7 mph    
Max Gust Speed -    
Visibility 6.2 miles    
Events      
T = Trace of Precipitation, MM = Missing Value Source: Averaged Metar Reports

Daily Weather History Graph

Daily Weather History Graph

Search for Another Location

Airport or City:

Trip Planner

Search our weather history database for the weather conditions in past years. The results will help you decide how hot, cold, wet, or windy it might be!

Date:

Astronomy

Jan. 15, 2013 Rise Set
Actual Time 11:00 AM EET 1:39 PM EET
Civil Twilight 9:10 AM EET 3:30 PM EET
Nautical Twilight 7:47 AM EET 4:52 PM EET
Astronomical Twilight 6:37 AM EET 6:03 PM EET
Moon 9:45 AM EET (1/15) 9:36 PM EET (1/15)
Length of Visible Light 6h 19m
Length of Day
2h 39m
Waxing Crescent, 16% of the Moon is Illuminated
Jan 15
Waxing Crescent
Jan 19
First Quarter
Jan 27
Full
Feb 3
Last Quarter
Feb 10
New

Hourly Weather History & Observations

Time (EET) Temp. Windchill Dew Point Humidity Pressure Visibility Wind Dir Wind Speed Gust Speed Precip Events Conditions
12:20 AM 3.2 °F - -0.4 °F 85% 29.98 in - Variable 1.2 mph - N/A   Clear
12:50 AM 3.2 °F - -0.4 °F 85% 30.01 in 6.2 mi SE 2.3 mph - N/A   Mostly Cloudy
1:20 AM 5.0 °F - 3.2 °F 92% 30.01 in 6.2 mi Variable 2.3 mph - N/A   Mostly Cloudy
1:50 AM 5.0 °F -2.1 °F 1.4 °F 85% 30.01 in 6.2 mi WSW 3.5 mph - N/A   Scattered Clouds
2:00 AM 3 °F - 1 °F 87% 30.09 in 31 mi SSW 4.5 mph - -   Clear
2:20 AM 3.2 °F - 1.4 °F 92% 30.01 in 6.2 mi Variable 1.2 mph - N/A   Mostly Cloudy
2:50 AM 3.2 °F -6.2 °F -0.4 °F 85% 30.04 in 6.2 mi West 4.6 mph - N/A   Partly Cloudy
3:20 AM 1.4 °F - -0.4 °F 92% 30.04 in 6.2 mi WSW 2.3 mph - N/A   Scattered Clouds
3:50 AM -0.4 °F -10.4 °F -4.0 °F 85% 30.04 in 6.2 mi WSW 4.6 mph - N/A   Partly Cloudy
4:20 AM -0.4 °F -8.3 °F -4.0 °F 85% 30.04 in - WSW 3.5 mph - N/A   Clear
4:50 AM -4.0 °F -14.6 °F -5.8 °F 92% 30.04 in - WSW 4.6 mph - N/A   Clear
5:20 AM -4.0 °F -16.3 °F -7.6 °F 85% 30.04 in - WSW 5.8 mph - N/A   Clear
5:50 AM -4.0 °F -16.3 °F -7.6 °F 85% 30.04 in - WSW 5.8 mph - N/A   Clear
6:20 AM -4.0 °F -14.6 °F -7.6 °F 85% 30.06 in - WSW 4.6 mph - N/A   Clear
6:50 AM -4.0 °F -12.4 °F -7.6 °F 85% 30.06 in - WSW 3.5 mph - N/A   Clear
7:20 AM -5.8 °F - -7.6 °F 92% 30.06 in - West 2.3 mph - N/A   Clear
7:50 AM -5.8 °F -16.7 °F -9.4 °F 84% 30.06 in - WSW 4.6 mph - N/A   Clear
8:00 AM -6 °F - -9 °F 82% 30.15 in 31 mi WSW 4.5 mph - -   Clear
8:20 AM -5.8 °F -14.5 °F -9.4 °F 84% 30.06 in - WSW 3.5 mph - N/A   Clear
8:50 AM -5.8 °F -18.4 °F -9.4 °F 84% 30.06 in - WSW 5.8 mph - N/A   Clear
9:20 AM -5.8 °F -16.7 °F -9.4 °F 84% 30.06 in - WSW 4.6 mph - N/A   Clear
9:50 AM -7.6 °F -20.6 °F -11.2 °F 84% 30.09 in - WSW 5.8 mph - N/A   Clear
10:20 AM -9.4 °F -22.7 °F -13.0 °F 84% 30.09 in - WSW 5.8 mph - N/A   Clear
10:50 AM -9.4 °F -22.7 °F -13.0 °F 84% 30.09 in - WSW 5.8 mph - N/A   Clear
11:20 AM -9.4 °F -18.6 °F -13.0 °F 84% 30.09 in - West 3.5 mph - N/A   Clear
11:50 AM -9.4 °F -20.9 °F -13.0 °F 84% 30.12 in - WSW 4.6 mph - N/A   Clear
12:20 PM -11.2 °F -23.0 °F -14.8 °F 84% 30.12 in - WSW 4.6 mph - N/A   Clear
12:50 PM -9.4 °F -22.7 °F -13.0 °F 84% 30.12 in - WSW 5.8 mph - N/A   Clear
1:20 PM -11.2 °F -24.8 °F -14.8 °F 84% 30.12 in - WSW 5.8 mph - N/A   Clear
1:50 PM -11.2 °F -23.0 °F -14.8 °F 84% 30.12 in - WSW 4.6 mph - N/A   Clear
2:00 PM -11 °F - -15 °F 73% 30.22 in 31 mi WSW 4.5 mph - -   Clear
2:20 PM -11.2 °F -23.0 °F -14.8 °F 84% 30.12 in - West 4.6 mph - N/A   Clear
2:50 PM -11.2 °F -23.0 °F -14.8 °F 84% 30.12 in - West 4.6 mph - N/A   Clear
3:20 PM -11.2 °F - -16.6 °F 77% 30.12 in - WSW 2.3 mph - N/A   Clear
3:50 PM -11.2 °F -24.8 °F -14.8 °F 84% 30.12 in - WSW 5.8 mph - N/A   Clear
4:20 PM -13.0 °F -22.7 °F -16.6 °F 84% 30.12 in - WSW 3.5 mph - N/A   Clear
4:50 PM -13.0 °F -25.1 °F -16.6 °F 84% 30.12 in - WSW 4.6 mph - N/A   Clear
5:20 PM -13.0 °F -27.0 °F -16.6 °F 84% 30.12 in - WSW 5.8 mph - N/A   Clear
5:50 PM -13.0 °F -22.7 °F -16.6 °F 84% 30.15 in - WSW 3.5 mph - N/A   Clear
6:20 PM -13.0 °F -22.7 °F -18.4 °F 77% 30.15 in - WSW 3.5 mph - N/A   Clear
6:50 PM -13.0 °F -22.7 °F -18.4 °F 77% 30.15 in - WSW 3.5 mph - N/A   Clear
7:20 PM -13.0 °F -22.7 °F -18.4 °F 77% 30.15 in 6.2 mi WSW 3.5 mph - N/A   Light Ice Crystals
7:50 PM -14.8 °F -27.2 °F -18.4 °F 84% 30.15 in - WSW 4.6 mph - N/A   Clear
8:00 PM -15 °F - -19 °F 74% 30.25 in 28 mi WSW 6.7 mph - -   Clear
8:20 PM -14.8 °F -24.8 °F -18.4 °F 84% 30.15 in - WSW 3.5 mph - N/A   Clear
8:50 PM -14.8 °F -27.2 °F -20.2 °F 77% 30.15 in - WSW 4.6 mph - N/A   Clear
9:20 PM -14.8 °F -27.2 °F -20.2 °F 77% 30.15 in - WSW 4.6 mph - N/A   Clear
9:50 PM -14.8 °F -24.8 °F -20.2 °F 77% 30.15 in - WSW 3.5 mph - N/A   Clear
10:20 PM -14.8 °F -29.1 °F -18.4 °F 84% 30.15 in - WSW 5.8 mph - N/A   Clear
10:50 PM -16.6 °F -29.3 °F -20.2 °F 84% 30.15 in - WSW 4.6 mph - N/A   Clear
11:20 PM -16.6 °F -26.8 °F -20.2 °F 84% 30.15 in - WSW 3.5 mph - N/A   Clear
11:50 PM -16.6 °F - -22.0 °F 76% 30.15 in - WSW 2.3 mph - N/A   Clear